Weather History for St. Joseph, MO

Change the Weather History Date:

Monday, July 23, 2012

  Actual Average Record
Temperature  
Mean Temperature 84 °F 77 °F  
Max Temperature 101 °F 87 °F 103 °F (1941)
Min Temperature 67 °F 67 °F 53 °F (2003)
Degree Days  
Heating Degree Days 0 0  
Month to date heating degree days 0 0  
Since 1 June heating degree days 8 8  
Since 1 July heating degree days 0 0  
Cooling Degree Days 19 12  
Month to date cooling degree days 409 274  
Year to date cooling degree days 1027 654  
Since 1 June cooling degree days 760 541  
Growing Degree Days 34 (Base 50)    
Moisture  
Dew Point 66 °F    
Average Humidity 59    
Maximum Humidity 84    
Minimum Humidity 33    
Precipitation  
Precipitation 0.00 in 0.19 in 1.15 in (1932)
Month to date precipitation 0.02 3.77  
Year to date precipitation 14.87 20.90  
Sea Level Pressure  
Sea Level Pressure 29.96 in    
Wind  
Wind Speed 4 mph (South)    
Max Wind Speed 14 mph    
Max Gust Speed 30 mph    
Visibility 10 miles    
Events      
T = Trace of Precipitation, MM = Missing Value Source: NWS Daily Summary

Daily Weather History Graph

Daily Weather History Graph

Search for Another Location

Airport:

Trip Planner

Search our weather history database for the weather conditions in past years. The results will help you decide how hot, cold, wet, or windy it might be!

Date:

Astronomy

Jul. 23, 2012 Rise Set
Actual Time 6:11 AM CDT 8:40 PM CDT
Civil Twilight 5:40 AM CDT 9:11 PM CDT
Nautical Twilight 5:01 AM CDT 9:49 PM CDT
Astronomical Twilight 4:18 AM CDT 10:32 PM CDT
Moon 11:02 AM CDT (7/23) 10:56 PM CDT (7/23)
Length of Visible Light 15h 31m
Length of Day
14h 29m
Waxing Crescent, 22% of the Moon is Illuminated
Jul 23
Waxing Crescent
Jul 26
First Quarter
Aug 1
Full
Aug 9
Last Quarter
Aug 17
New

Hourly Weather History & Observations

Time (CDT) Temp. Heat Index Dew Point Humidity Pressure Visibility Wind Dir Wind Speed Gust Speed Precip Events Conditions
12:53 AM 73.0 °F - 66.0 °F 79% 29.97 in 10.0 mi SSE 3.5 mph - N/A   Clear
1:53 AM 75.0 °F - 64.0 °F 69% 29.96 in 10.0 mi SSE 3.5 mph - N/A   Clear
2:53 AM 70.0 °F - 64.9 °F 84% 29.97 in 10.0 mi Calm Calm - N/A   Clear
3:53 AM 70.0 °F - 63.0 °F 78% 29.99 in 10.0 mi Calm Calm - N/A   Clear
4:53 AM 69.1 °F - 63.0 °F 81% 29.99 in 10.0 mi Calm Calm - N/A   Clear
5:53 AM 69.1 °F - 64.0 °F 84% 30.00 in 10.0 mi Calm Calm - N/A   Clear
6:53 AM 71.6 °F - 64.4 °F 78% 30.03 in 10.0 mi SSE 3.5 mph - N/A   Clear
7:53 AM 78.1 °F - 66.9 °F 68% 30.03 in 10.0 mi Calm Calm - N/A   Clear
8:53 AM 82.0 °F 83.4 °F 64.0 °F 54% 30.03 in 10.0 mi SW 5.8 mph - N/A   Clear
9:53 AM 86.0 °F 88.2 °F 66.0 °F 51% 30.02 in 10.0 mi South 8.1 mph - N/A   Clear
10:53 AM 90.0 °F 94.5 °F 69.1 °F 50% 30.01 in 10.0 mi South 6.9 mph - N/A   Clear
11:53 AM 93.9 °F 99.1 °F 69.1 °F 44% 30.00 in 10.0 mi South 5.8 mph - N/A   Clear
12:53 PM 95.0 °F 97.9 °F 66.0 °F 38% 29.99 in 10.0 mi SSW 6.9 mph 16.1 mph N/A   Clear
1:53 PM 97.0 °F 99.3 °F 64.0 °F 34% 29.97 in 10.0 mi SW 5.8 mph - N/A   Clear
2:53 PM 99.0 °F 102.3 °F 64.9 °F 33% 29.95 in 10.0 mi Variable 5.8 mph - N/A   Clear
3:53 PM 99.0 °F 101.7 °F 64.0 °F 32% 29.93 in 10.0 mi SSW 10.4 mph - N/A   Clear
4:53 PM 99.0 °F 101.7 °F 64.0 °F 32% 29.92 in 10.0 mi South 9.2 mph - N/A   Clear
5:53 PM 99.0 °F 101.7 °F 64.0 °F 32% 29.91 in 10.0 mi South 6.9 mph - N/A   Clear
6:53 PM 97.0 °F 101.0 °F 66.9 °F 37% 29.90 in 10.0 mi South 4.6 mph - N/A   Clear
7:53 PM 93.0 °F 97.4 °F 68.0 °F 44% 29.90 in 10.0 mi South 5.8 mph - N/A   Clear
8:53 PM 84.9 °F 90.1 °F 71.1 °F 63% 29.90 in 10.0 mi Calm Calm - N/A   Clear
9:53 PM 87.1 °F 89.9 °F 66.9 °F 51% 29.92 in 10.0 mi SSW 3.5 mph - N/A   Clear
10:53 PM 82.9 °F 85.8 °F 68.0 °F 60% 29.92 in 10.0 mi South 4.6 mph - N/A   Clear
11:53 PM 81.0 °F 84.1 °F 69.1 °F 67% 29.92 in 10.0 mi South 3.5 mph - N/A   Clear